Location: Unspecified
(0.0000°N, 0.0000°E)
Time: 14:50:36
(UTC+00:00)

Tiros 1 despin weight - Visible Passes

Search period start: 12 April 2021 00:00
Search period end: 22 April 2021 00:00
Orbit: 593 x 641 km, 48.2° (Epoch: 11 April)

Date Brightness Start Highest point End Pass type
(mag) Time Alt. Az. Time Alt. Az. Time Alt. Az.
12 Apr ? 04:49:14 17° SSW 04:52:42 62° SE 04:57:14 10° NE visible
13 Apr ? 03:28:47 12° ESE 03:28:47 12° ESE 03:29:46 10° ESE visible
13 Apr ? 05:05:54 19° WSW 05:08:58 47° NW 05:13:22 10° NNE visible
14 Apr ? 03:45:22 27° E 03:45:22 27° E 03:48:02 10° ENE visible
14 Apr ? 05:22:28 12° W 05:25:15 18° NW 05:28:24 10° N visible
15 Apr ? 04:01:51 39° NE 04:01:51 39° NE 04:04:45 10° NE visible
16 Apr ? 04:18:12 24° N 04:18:12 24° N 04:20:30 10° NNE visible
17 Apr ? 04:34:26 10° NNW 04:34:26 10° NNW 04:34:39 10° NNW visible
